Santa Maria, CA

3:45 PM PDT on May 24, 2017 (GMT -0700)
Santa Maria Public Airport / Captain G. Allan Hancock Field

Weather History for KSMX - April, 2013

Change the Weather History Date:

Friday, April 26, 2013

  Actual Average Record
Temperature  
Mean Temperature 57 °F 56 °F  
Max Temperature 67 °F 68 °F 100 °F (2004)
Min Temperature 46 °F 45 °F 33 °F (1975)
Degree Days  
Heating Degree Days 8 9  
Month to date heating degree days 177 250  
Since 1 July heating degree days 2152 2423  
Cooling Degree Days 0 0  
Month to date cooling degree days 2 0  
Year to date cooling degree days 2 2  
Growing Degree Days 6 (Base 50)    
Moisture  
Dew Point 48 °F    
Average Humidity 75    
Maximum Humidity 93    
Minimum Humidity 56    
Precipitation  
Precipitation 0.00 in 0.02 in 1.28 in (1960)
Month to date precipitation 0.11 0.90  
Year to date precipitation 2.45 9.28  
Since 1 July precipitation 6.18  
Sea Level Pressure  
Sea Level Pressure 30.18 in    
Wind  
Wind Speed 7 mph (WNW)    
Max Wind Speed 20 mph    
Max Gust Speed 24 mph    
Visibility 6 miles    
Events      
T = Trace of Precipitation, MM = Missing Value Source: NWS Daily Summary

Daily Weather History Graph

Daily Weather History Graph

Search for Another Location

Airport or City:

Trip Planner

Search our weather history database for the weather conditions in past years. The results will help you decide how hot, cold, wet, or windy it might be!

Date:

Astronomy

Apr. 26, 2013 Rise Set
Actual Time 6:16 AM PDT 7:43 PM PDT
Civil Twilight 5:49 AM PDT 8:10 PM PDT
Nautical Twilight 5:17 AM PDT 8:42 PM PDT
Astronomical Twilight 4:44 AM PDT 9:15 PM PDT
Moon 9:08 PM PDT (4/26) 6:50 AM PDT (4/26)
Length of Visible Light 14h 20m
Length of Day
13h 27m
Full, 99% of the Moon is Illuminated
Apr 26
Full
May 2
Last Quarter
May 9
New
May 17
First Quarter
May 24
Full

Hourly Weather History & Observations

Time (PDT) Temp. Dew Point Humidity Pressure Visibility Wind Dir Wind Speed Gust Speed Precip Events Conditions
12:51 AM 51.1 °F 46.0 °F 83% 30.14 in 7.0 mi SE 3.5 mph - N/A   Clear
1:51 AM 50.0 °F 45.0 °F 83% 30.14 in 8.0 mi South 3.5 mph - N/A   Clear
2:51 AM 48.9 °F 45.0 °F 86% 30.14 in 7.0 mi Calm Calm - N/A   Clear
3:51 AM 46.9 °F 44.1 °F 90% 30.15 in 8.0 mi Calm Calm - N/A   Clear
4:30 AM 46.4 °F 42.8 °F 87% 30.15 in 7.0 mi Calm Calm - N/A   Scattered Clouds
4:39 AM 46.4 °F 44.6 °F 93% 30.15 in 8.0 mi Calm Calm - N/A   Mostly Cloudy
4:51 AM 48.0 °F 44.1 °F 86% 30.16 in 8.0 mi Calm Calm - N/A   Mostly Cloudy
5:01 AM 48.2 °F 44.6 °F 87% 30.15 in 8.0 mi Calm Calm - N/A   Scattered Clouds
5:51 AM 48.0 °F 45.0 °F 89% 30.16 in 7.0 mi Calm Calm - N/A   Scattered Clouds
6:51 AM 46.9 °F 44.1 °F 90% 30.18 in 5.0 mi Calm Calm - N/A   Mostly Cloudy
7:00 AM 46.4 °F 44.6 °F 93% 30.17 in 6.0 mi Calm Calm - N/A   Mostly Cloudy
7:51 AM 51.1 °F 48.9 °F 92% 30.19 in 4.0 mi Calm Calm - N/A   Mostly Cloudy
8:06 AM 53.6 °F 48.2 °F 82% 30.18 in 5.0 mi Calm Calm - N/A   Scattered Clouds
8:51 AM 57.0 °F 50.0 °F 77% 30.19 in 7.0 mi Calm Calm - N/A   Clear
9:51 AM 62.1 °F 48.0 °F 60% 30.19 in 7.0 mi NW 5.8 mph - N/A   Clear
10:51 AM 64.9 °F 50.0 °F 58% 30.19 in 7.0 mi WNW 11.5 mph - N/A   Clear
11:51 AM 66.0 °F 51.1 °F 59% 30.19 in 7.0 mi WNW 12.7 mph - N/A   Clear
12:51 PM 66.9 °F 51.1 °F 57% 30.18 in 7.0 mi NW 13.8 mph - N/A   Clear
1:51 PM 64.9 °F 51.1 °F 61% 30.18 in 6.0 mi NNW 17.3 mph - N/A   Haze
2:51 PM 64.0 °F 50.0 °F 60% 30.17 in 6.0 mi NW 12.7 mph - N/A   Haze
3:51 PM 64.0 °F 48.9 °F 58% 30.16 in 6.0 mi WNW 15.0 mph - N/A   Haze
4:51 PM 62.1 °F 48.9 °F 62% 30.16 in 6.0 mi NW 13.8 mph - N/A   Haze
5:51 PM 60.1 °F 50.0 °F 69% 30.17 in 5.0 mi NW 11.5 mph - N/A   Haze
6:51 PM 57.0 °F 50.0 °F 77% 30.18 in 5.0 mi WNW 10.4 mph - N/A   Haze
7:51 PM 53.1 °F 48.9 °F 86% 30.18 in 4.0 mi NNW 6.9 mph - N/A   Partly Cloudy
8:51 PM 52.0 °F 48.9 °F 89% 30.20 in 6.0 mi WNW 9.2 mph - N/A   Clear
9:42 PM 51.8 °F 48.2 °F 88% 30.21 in 5.0 mi WNW 6.9 mph - N/A   Partly Cloudy
9:51 PM 51.1 °F 48.0 °F 89% 30.22 in 5.0 mi WNW 8.1 mph - N/A   Partly Cloudy
10:48 PM 51.8 °F 48.2 °F 88% 30.21 in 5.0 mi WNW 5.8 mph - N/A   Mostly Cloudy
10:51 PM 51.1 °F 48.0 °F 89% 30.22 in 5.0 mi WNW 5.8 mph - N/A   Mostly Cloudy
11:05 PM 51.8 °F 48.2 °F 88% 30.21 in 4.0 mi WNW 8.1 mph - N/A   Overcast
11:51 PM 51.1 °F 48.9 °F 92% 30.21 in 4.0 mi WNW 8.1 mph - N/A   Overcast